| time (UTC) | temp F | wind direction | speed knots | gust knots | rain 1hr in | rain 24hr in | rain mn in | humidity % | barometer mb |
| 20260502201550 | 70 | 304 | 4.3 | 12.2 | 0.00 | 0.00 | 0.00 | 65 | 1012.0 |
| 20260502200046 | 70 | 336 | 1.7 | 10.4 | 0.00 | 0.00 | 0.00 | 64 | 1012.1 |
| 20260502194548 | 71 | 346 | 2.6 | 13.0 | 0.00 | 0.00 | 0.00 | 62 | 1012.1 |
| 20260502191545 | 71 | 315 | 5.2 | 13.0 | 0.00 | 0.00 | 0.00 | 59 | 1011.9 |
| 20260502190045 | 71 | 324 | 5.2 | 13.9 | 0.00 | 0.00 | 0.00 | 59 | 1011.6 |
| 20260502184544 | 71 | 360 | 3.5 | 11.3 | 0.00 | 0.00 | 0.00 | 59 | 1011.4 |
| 20260502181538 | 68 | 327 | 2.6 | 10.4 | 0.00 | 0.00 | 0.00 | 65 | 1011.7 |
| 20260502161528 | 64 | 16 | 0.0 | 0.0 | 0.00 | 0.00 | 0.00 | 73 | 1012.6 |
| 20260502151525 | 66 | 16 | 0.0 | 0.0 | 0.00 | 0.00 | 0.00 | 68 | 1012.9 |
| 20260502121505 | 71 | 13 | 0.0 | 0.0 | 0.00 | 0.00 | 0.00 | 55 | 1013.9 |
| 20260502114502 | 71 | 55 | 0.0 | 0.0 | 0.00 | 0.00 | 0.00 | 55 | 1014.2 |
| 20260502111501 | 71 | 33 | 0.0 | 2.6 | 0.00 | 0.00 | 0.00 | 55 | 1014.4 |
| 20260502110100 | 71 | 57 | 0.9 | 5.2 | 0.00 | 0.00 | 0.00 | 55 | 1014.4 |
| 20260502104600 | 71 | 39 | 1.7 | 5.2 | 0.00 | 0.00 | 0.00 | 55 | 1014.4 |
| 20260502101618 | 72 | 56 | 0.9 | 4.3 | 0.00 | 0.00 | 0.00 | 54 | 1014.5 |
| 20260502100111 | 72 | 20 | 0.0 | 3.5 | 0.00 | 0.00 | 0.00 | 54 | 1014.5 |
| 20260502070107 | 75 | 28 | 1.7 | 5.2 | 0.00 | 0.00 | 0.00 | 50 | 1014.4 |
| 20260502064620 | 75 | 5 | 2.6 | 6.1 | 0.00 | 0.00 | 0.00 | 49 | 1014.5 |
| 20260502061552 | 76 | 5 | 1.7 | 4.3 | 0.00 | 0.00 | 0.00 | 49 | 1014.5 |
| 20260502060051 | 76 | 26 | 0.0 | 3.5 | 0.00 | 0.00 | 0.00 | 50 | 1014.7 |
| 20260502054550 | 75 | 38 | 1.7 | 5.2 | 0.00 | 0.00 | 0.00 | 50 | 1014.7 |
| 20260502051548 | 75 | 14 | 1.7 | 6.1 | 0.00 | 0.00 | 0.00 | 50 | 1014.8 |
| 20260502050048 | 75 | 5 | 1.7 | 6.1 | 0.00 | 0.00 | 0.00 | 50 | 1014.9 |
| 20260502044545 | 75 | 22 | 0.0 | 7.0 | 0.00 | 0.00 | 0.00 | 50 | 1015.1 |
| 20260502041555 | 74 | 360 | 1.7 | 6.1 | 0.00 | 0.00 | 0.00 | 50 | 1015.4 |
| 20260502040042 | 75 | 11 | 1.7 | 4.3 | 0.00 | 0.00 | 0.00 | 50 | 1015.6 |
| 20260502034539 | 75 | 5 | 1.7 | 6.1 | 0.00 | 0.00 | 0.00 | 49 | 1015.8 |
| 20260502031536 | 75 | 28 | 3.5 | 7.8 | 0.00 | 0.00 | 0.00 | 50 | 1016.4 |
| 20260502030035 | 74 | 9 | 2.6 | 7.8 | 0.00 | 0.00 | 0.00 | 50 | 1016.6 |
| 20260502024533 | 74 | 355 | 3.5 | 10.4 | 0.00 | 0.00 | 0.00 | 50 | 1016.8 |
| 20260502021526 | 73 | 355 | 6.1 | 15.6 | 0.00 | 0.00 | 0.00 | 52 | 1017.3 |
| 20260502020024 | 73 | 23 | 3.5 | 10.4 | 0.00 | 0.00 | 0.00 | 52 | 1017.6 |
| 20260502014524 | 72 | 355 | 4.3 | 9.6 | 0.00 | 0.00 | 0.00 | 52 | 1017.8 |
| 20260502011518 | 72 | 12 | 5.2 | 10.4 | 0.00 | 0.00 | 0.00 | 53 | 1018.3 |
| 20260502010025 | 71 | 5 | 2.6 | 13.9 | 0.00 | 0.00 | 0.00 | 53 | 1018.7 |
| 20260502004524 | 71 | 355 | 3.5 | 10.4 | 0.00 | 0.00 | 0.00 | 54 | 1018.9 |
| 20260502001514 | 71 | 355 | 4.3 | 14.8 | 0.00 | 0.00 | 0.00 | 54 | 1018.9 |
| 20260502000012 | 70 | 5 | 3.5 | 11.3 | 0.00 | 0.00 | 0.00 | 54 | 1019.0 |
| 20260501234514 | 70 | 350 | 1.7 | 11.3 | 0.00 | 0.00 | 0.00 | 54 | 1019.1 |
| 20260501231510 | 70 | 5 | 4.3 | 9.6 | 0.00 | 0.00 | 0.00 | 54 | 1019.2 |
| 20260501230014 | 69 | 351 | 3.5 | 7.0 | 0.00 | 0.00 | 0.00 | 55 | 1019.2 |
| 20260501224506 | 69 | 26 | 0.0 | 4.3 | 0.00 | 0.00 | 0.00 | 56 | 1019.2 |
| 20260501221503 | 68 | 56 | 2.6 | 7.0 | 0.00 | 0.00 | 0.00 | 56 | 1019.2 |
| 20260501220111 | 67 | 355 | 3.5 | 8.7 | 0.00 | 0.00 | 0.00 | 56 | 1019.1 |
| 20260501214559 | 65 | 44 | 1.7 | 10.4 | 0.00 | 0.00 | 0.00 | 59 | 1019.0 |
| 20260501213200 | 59 | 335 | 0.9 | 2.6 | 0.00 | 0.00 | 0.00 | 73 | 1018.9 |
| 20260501211602 | 58 | 51 | 0.0 | 0.0 | 0.00 | 0.00 | 0.00 | 73 | 1018.8 |
| 20260501210058 | 58 | 66 | 0.0 | 0.0 | 0.00 | 0.00 | 0.00 | 72 | 1018.6 |
| 20260501204607 | 58 | 66 | 0.0 | 0.0 | 0.00 | 0.00 | 0.00 | 70 | 1018.7 |